| time (UTC) | temp F | wind direction | speed MPH | gust MPH | rain 1hr in | rain 24hr in | rain mn in | humidity % | barometer mb |
| 20260904153955 | 74 | 215 | 4.0 | 10.0 | 0.00 | 0.00 | 0.00 | 76 | 1007.2 |
| 20260904150953 | 73 | 291 | 1.0 | 7.0 | 0.00 | 0.00 | 0.00 | 77 | 1007.8 |
| 20260904145956 | 73 | 305 | 4.0 | 8.0 | 0.00 | 0.00 | 0.00 | 77 | 1007.7 |
| 20260904144952 | 72 | 55 | 3.0 | 10.0 | 0.00 | 0.00 | 0.00 | 78 | 1008.0 |
| 20260904143955 | 73 | 350 | 1.0 | 14.0 | 0.00 | 0.00 | 0.00 | 76 | 1008.2 |
| 20260904142953 | 72 | 267 | 5.0 | 11.0 | 0.00 | 0.00 | 0.00 | 78 | 1008.5 |
| 20260904141008 | 71 | 251 | 2.0 | 10.0 | 0.00 | 0.00 | 0.00 | 79 | 1009.0 |
| 20260904135006 | 73 | 113 | 1.0 | 9.0 | 0.00 | 0.00 | 0.00 | 78 | 1009.1 |
| 20260904133958 | 73 | 171 | 2.0 | 10.0 | 0.00 | 0.00 | 0.00 | 76 | 1009.4 |
| 20260904132953 | 72 | 146 | 0.0 | 7.0 | 0.00 | 0.00 | 0.00 | 78 | 1009.4 |
| 20260904131955 | 71 | 118 | 2.0 | 6.0 | 0.00 | 0.00 | 0.00 | 77 | 1009.7 |
| 20260904130953 | 72 | 258 | 2.0 | 7.0 | 0.00 | 0.00 | 0.00 | 76 | 1009.8 |
| 20260904125953 | 71 | 105 | 0.0 | 7.0 | 0.00 | 0.00 | 0.00 | 76 | 1010.3 |
| 20260904123955 | 71 | 206 | 2.0 | 9.0 | 0.00 | 0.00 | 0.00 | 76 | 1010.5 |
| 20260904122953 | 72 | 146 | 0.0 | 6.0 | 0.00 | 0.00 | 0.00 | 77 | 1010.8 |
| 20260904121953 | 71 | 199 | 1.0 | 11.0 | 0.00 | 0.00 | 0.00 | 73 | 1011.1 |
| 20260904115953 | 72 | 276 | 2.0 | 13.0 | 0.00 | 0.00 | 0.00 | 74 | 1011.0 |
| 20260904114953 | 73 | 304 | 2.0 | 11.0 | 0.00 | 0.00 | 0.00 | 74 | 1011.3 |
| 20260904113954 | 73 | 149 | 2.0 | 9.0 | 0.00 | 0.00 | 0.00 | 76 | 1011.4 |
| 20260904111953 | 71 | 152 | 1.0 | 14.0 | 0.00 | 0.00 | 0.00 | 79 | 1012.0 |
| 20260904110955 | 72 | 209 | 1.0 | 10.0 | 0.00 | 0.00 | 0.00 | 76 | 1012.0 |
| 20260904105953 | 71 | 243 | 3.0 | 11.0 | 0.00 | 0.00 | 0.00 | 78 | 1012.2 |
| 20260904104953 | 70 | 156 | 3.0 | 11.0 | 0.00 | 0.00 | 0.00 | 77 | 1012.5 |
| 20260904102953 | 71 | 187 | 6.0 | 8.0 | 0.00 | 0.00 | 0.00 | 74 | 1012.3 |
| 20260904101952 | 71 | 334 | 2.0 | 8.0 | 0.00 | 0.00 | 0.00 | 76 | 1012.6 |
| 20260904100954 | 69 | 224 | 2.0 | 9.0 | 0.00 | 0.00 | 0.00 | 78 | 1012.8 |
| 20260904095953 | 70 | 42 | 2.0 | 10.0 | 0.00 | 0.00 | 0.00 | 76 | 1013.0 |
| 20260904092953 | 70 | 199 | 2.0 | 11.0 | 0.00 | 0.00 | 0.00 | 76 | 1013.1 |
| 20260904091952 | 70 | 249 | 4.0 | 9.0 | 0.00 | 0.00 | 0.00 | 76 | 1013.0 |
| 20260904090953 | 69 | 20 | 2.0 | 11.0 | 0.00 | 0.00 | 0.00 | 79 | 1013.4 |
| 20260904082954 | 66 | 281 | 5.0 | 11.0 | 0.00 | 0.00 | 0.00 | 83 | 1013.6 |
| 20260904081953 | 67 | 98 | 1.0 | 7.0 | 0.00 | 0.00 | 0.00 | 84 | 1013.6 |
| 20260904075955 | 66 | 164 | 3.0 | 7.0 | 0.00 | 0.00 | 0.00 | 86 | 1013.4 |
| 20260904074942 | 66 | 197 | 2.0 | 8.0 | 0.00 | 0.00 | 0.00 | 86 | 1013.5 |
| 20260904073943 | 66 | 242 | 3.0 | 9.0 | 0.00 | 0.00 | 0.00 | 87 | 1013.3 |
| 20260904072941 | 66 | 168 | 0.0 | 9.0 | 0.00 | 0.00 | 0.00 | 87 | 1013.6 |
| 20260904071955 | 65 | 136 | 1.0 | 4.0 | 0.00 | 0.00 | 0.00 | 87 | 1013.3 |
| 20260904070941 | 65 | 188 | 3.0 | 7.0 | 0.00 | 0.00 | 0.00 | 88 | 1013.5 |
| 20260904064954 | 65 | 187 | 2.0 | 7.0 | 0.00 | 0.00 | 0.00 | 89 | 1013.5 |
| 20260904063941 | 65 | 144 | 0.0 | 7.0 | 0.00 | 0.00 | 0.00 | 89 | 1014.2 |
| 20260904060941 | 63 | 199 | 0.0 | 7.0 | 0.00 | 0.00 | 0.00 | 92 | 1013.9 |
| 20260904055941 | 63 | 249 | 6.0 | 7.0 | 0.00 | 0.00 | 0.00 | 92 | 1014.0 |
| 20260904053943 | 62 | 251 | 3.0 | 4.0 | 0.00 | 0.00 | 0.00 | 93 | 1013.6 |
| 20260904052941 | 62 | 146 | 0.0 | 2.0 | 0.00 | 0.00 | 0.00 | 93 | 1013.7 |
| 20260904051941 | 62 | 200 | 2.0 | 3.0 | 0.00 | 0.00 | 0.00 | 93 | 1013.4 |
| 20260904050940 | 62 | 303 | 4.0 | 6.0 | 0.00 | 0.00 | 0.00 | 93 | 1013.7 |
| 20260904045943 | 62 | 139 | 0.0 | 8.0 | 0.00 | 0.00 | 0.00 | 93 | 1013.8 |
| 20260904043943 | 62 | 150 | 1.0 | 4.0 | 0.00 | 0.00 | 0.00 | 93 | 1014.0 |
| 20260904041941 | 62 | 176 | 3.0 | 6.0 | 0.00 | 0.00 | 0.00 | 92 | 1014.2 |
| 20260904040943 | 62 | 207 | 1.0 | 4.0 | 0.00 | 0.00 | 0.00 | 92 | 1014.2 |
| 20260904035940 | 62 | 157 | 0.0 | 9.0 | 0.00 | 0.00 | 0.00 | 92 | 1014.0 |
| 20260904034940 | 62 | 173 | 2.0 | 4.0 | 0.00 | 0.00 | 0.00 | 92 | 1014.0 |
| 20260904033941 | 62 | 158 | 1.0 | 3.0 | 0.00 | 0.00 | 0.00 | 92 | 1014.1 |
| 20260904032941 | 62 | 157 | 0.0 | 3.0 | 0.00 | 0.00 | 0.00 | 92 | 1014.2 |
| 20260904031942 | 62 | 153 | 0.0 | 2.0 | 0.00 | 0.00 | 0.00 | 92 | 1013.9 |
| 20260904030941 | 62 | 142 | 0.0 | 6.0 | 0.00 | 0.00 | 0.00 | 92 | 1014.0 |
| 20260904025941 | 62 | 169 | 0.0 | 7.0 | 0.00 | 0.00 | 0.00 | 92 | 1014.1 |
| 20260904024954 | 61 | 153 | 2.0 | 4.0 | 0.00 | 0.00 | 0.00 | 92 | 1014.1 |
| 20260904023941 | 62 | 139 | 1.0 | 3.0 | 0.00 | 0.00 | 0.00 | 91 | 1014.4 |
| 20260904022942 | 62 | 147 | 0.0 | 3.0 | 0.00 | 0.00 | 0.00 | 91 | 1013.9 |
| 20260904015945 | 61 | 133 | 1.0 | 2.0 | 0.00 | 0.00 | 0.00 | 90 | 1014.3 |
| 20260904014941 | 62 | 140 | 0.0 | 4.0 | 0.00 | 0.00 | 0.00 | 89 | 1014.1 |
| 20260904011941 | 62 | 69 | 1.0 | 3.0 | 0.00 | 0.00 | 0.00 | 88 | 1014.4 |
| 20260904010941 | 62 | 183 | 2.0 | 7.0 | 0.00 | 0.00 | 0.00 | 87 | 1014.2 |
| 20260904005943 | 62 | 289 | 0.0 | 2.0 | 0.00 | 0.00 | 0.00 | 87 | 1014.5 |
| 20260904004941 | 62 | 138 | 0.0 | 6.0 | 0.00 | 0.00 | 0.00 | 86 | 1014.5 |
| 20260904003942 | 62 | 134 | 0.0 | 6.0 | 0.00 | 0.00 | 0.00 | 87 | 1014.4 |
| 20260903234943 | 62 | 138 | 0.0 | 3.0 | 0.00 | 0.00 | 0.00 | 85 | 1014.7 |
| 20260903233954 | 62 | 198 | 1.0 | 3.0 | 0.00 | 0.00 | 0.00 | 84 | 1014.6 |
| 20260903232941 | 63 | 152 | 0.0 | 4.0 | 0.00 | 0.00 | 0.00 | 83 | 1015.0 |
| 20260903225945 | 64 | 145 | 0.0 | 6.0 | 0.00 | 0.00 | 0.00 | 81 | 1015.0 |
| 20260903223944 | 65 | 195 | 2.0 | 7.0 | 0.00 | 0.00 | 0.00 | 79 | 1015.1 |
| 20260903222944 | 65 | 148 | 1.0 | 6.0 | 0.00 | 0.00 | 0.00 | 78 | 1014.9 |
| 20260903221941 | 64 | 218 | 3.0 | 7.0 | 0.00 | 0.00 | 0.00 | 78 | 1014.8 |
| 20260903220941 | 64 | 151 | 0.0 | 6.0 | 0.00 | 0.00 | 0.00 | 79 | 1015.0 |
| 20260903212943 | 64 | 145 | 0.0 | 3.0 | 0.00 | 0.00 | 0.00 | 79 | 1015.1 |
| 20260903211941 | 64 | 166 | 2.0 | 3.0 | 0.00 | 0.00 | 0.00 | 79 | 1015.1 |
| 20260903210941 | 64 | 120 | 1.0 | 4.0 | 0.00 | 0.00 | 0.00 | 78 | 1015.4 |
| 20260903203941 | 64 | 147 | 0.0 | 2.0 | 0.00 | 0.00 | 0.00 | 79 | 1015.1 |
| 20260903202941 | 64 | 181 | 1.0 | 2.0 | 0.00 | 0.00 | 0.00 | 78 | 1015.3 |
| 20260903201954 | 64 | 147 | 0.0 | 2.0 | 0.00 | 0.00 | 0.00 | 78 | 1015.3 |
| 20260903200940 | 63 | 130 | 0.0 | 1.0 | 0.00 | 0.00 | 0.00 | 80 | 1015.6 |
| 20260903195943 | 63 | 141 | 0.0 | 1.0 | 0.00 | 0.00 | 0.00 | 80 | 1015.8 |
| 20260903194941 | 63 | 137 | 0.0 | 1.0 | 0.00 | 0.00 | 0.00 | 81 | 1015.6 |
| 20260903192943 | 63 | 133 | 1.0 | 2.0 | 0.00 | 0.00 | 0.00 | 79 | 1015.7 |
| 20260903191945 | 63 | 139 | 0.0 | 1.0 | 0.00 | 0.00 | 0.00 | 80 | 1015.7 |
| 20260903190956 | 63 | 141 | 0.0 | 1.0 | 0.00 | 0.00 | 0.00 | 80 | 1015.9 |
| 20260903185941 | 62 | 142 | 0.0 | 1.0 | 0.00 | 0.00 | 0.00 | 82 | 1015.9 |
| 20260903184942 | 62 | 141 | 0.0 | 1.0 | 0.00 | 0.00 | 0.00 | 84 | 1016.0 |
| 20260903183940 | 62 | 139 | 0.0 | 0.0 | 0.00 | 0.00 | 0.00 | 85 | 1016.2 |
| 20260903182942 | 62 | 137 | 0.0 | 1.0 | 0.00 | 0.00 | 0.00 | 86 | 1016.1 |
| 20260903181941 | 62 | 139 | 0.0 | 0.0 | 0.00 | 0.00 | 0.00 | 86 | 1015.9 |
| 20260903180941 | 62 | 144 | 0.0 | 0.0 | 0.00 | 0.00 | 0.00 | 86 | 1016.2 |
| 20260903175941 | 63 | 143 | 0.0 | 1.0 | 0.00 | 0.00 | 0.00 | 84 | 1016.0 |
| 20260903174941 | 64 | 137 | 0.0 | 0.0 | 0.00 | 0.00 | 0.00 | 81 | 1016.1 |
| 20260903173941 | 64 | 137 | 0.0 | 0.0 | 0.00 | 0.00 | 0.00 | 80 | 1016.1 |
| 20260903172943 | 64 | 143 | 0.0 | 0.0 | 0.00 | 0.00 | 0.00 | 78 | 1016.2 |
| 20260903171943 | 65 | 146 | 0.0 | 1.0 | 0.00 | 0.00 | 0.00 | 76 | 1016.2 |
| 20260903170941 | 66 | 136 | 0.0 | 1.0 | 0.00 | 0.00 | 0.00 | 75 | 1016.2 |
| 20260903165942 | 66 | 148 | 0.0 | 2.0 | 0.00 | 0.00 | 0.00 | 71 | 1016.2 |
| 20260903164941 | 67 | 209 | 1.0 | 3.0 | 0.00 | 0.00 | 0.00 | 69 | 1016.2 |
| 20260903163943 | 68 | 151 | 0.0 | 4.0 | 0.00 | 0.00 | 0.00 | 68 | 1016.1 |
| 20260903162943 | 69 | 346 | 4.0 | 8.0 | 0.00 | 0.00 | 0.00 | 66 | 1016.0 |
| 20260903160941 | 70 | 280 | 1.0 | 4.0 | 0.00 | 0.00 | 0.00 | 70 | 1016.1 |
| 20260903155942 | 70 | 142 | 0.0 | 3.0 | 0.00 | 0.00 | 0.00 | 72 | 1016.2 |
| 20260903154941 | 70 | 160 | 1.0 | 7.0 | 0.00 | 0.00 | 0.00 | 69 | 1016.2 |